Location: Wellington
(41.3000°S, 174.7830°E)
Time: 17:23:19
(UTC+13:00)

Cosmos 2237 Rocket - Pass Details

Date: 24 January 2019
Orbit: 833 x 851 km, 71.0° (Epoch: 18 October)

Event Time Altitude Azimuth Distance (km) Brightness Sun altitude
Exits shadow 23:57:26 36° 97° (E) 1,319 3.0 -25.6°
Drops below altitude 10° 00:01:45 10° 141° (SE) 2,489 4.9 -25.9°
Sets 00:04:20 0° 148° (SSE) 3,428 5.8 -26.1°
